Regional Weather Roundup
Issued by NWS Sterling, VA

Home | Current Version | Previous Version | Graphics & Text | Print | Product List | Glossary On
Versions: 1 2 3 4 5 6 7 8 9 10 11 12 13 14 15 16 17 18 19 20 21 22 23 24 25 26 27 28 29 30 31 32 33 34 35 36 37 38 39 40 41 42 43 44 45 46 47 48 49 50
810
ASUS41 KLWX 130810
RWRLWX

REGIONAL WEATHER ROUNDUP
NATIONAL WEATHER SERVICE BALTIMORE MD/WASHINGTON DC
300 AM EST SAT FEB 13 2016

Note: "FAIR" indicates few or no clouds below 12,000 feet
with no significant weather and/or obstructions to visibility.
 TC=TEMPERATURE CELSIUS

 * =Non NWS site. Station does not report precipitation (e.g. rain,
    snow, etc.), thunder, or fog.

DCZ001-MDZ009-015-VAZ040>042-051-053>054-130900-
WASHINGTON METRO

CITY           SKY/WX    TMP DP  RH WIND       PRES   REMARKS
WASHINGTON NAT CLOUDY    28  11  48 W13G21    30.02R WCI  17
DULLES         MOCLDY    24  11  57 NW21G36   30.02R WCI   9
ANDREWS AFB    PTCLDY    26  10  51 W14G21    29.98S WCI  14
FT BELVOIR     FAIR      26  15  64 NW23G31   30.02R WCI  11
QUANTICO       MOCLDY    26  17  68 N12       30.05R WCI  16
COLLEGE PARK*  MOCLDY    28  14  54 W7        30.01R
LEESBURG*      CLOUDY    27  19  74 NW17G25   30.03R WCI  14
MANASSAS*      CLOUDY    23  21  93 NW21G35   30.04R WCI   8
GAITHERSBURG*  MOCLDY    21  12  68 NW14G26   30.01S WCI   8

$$

MDZ006>007-011-014-130900-
BALTIMORE METRO

CITY           SKY/WX    TMP DP  RH WIND       PRES   REMARKS
BWI AIRPORT    PTCLDY    20  14  77 W7        29.99R
MD SCIENCE CTR   N/A     23  15  71 MISG      30.07R
MARTIN STATE   CLEAR     27  19  74 SW6       30.00S
ANNAPOLIS      CLEAR     25  17  72 W5        29.99S
FORT MEADE*    PTCLDY    23  16  74 W13G20    30.02R WCI  11

$$

MDZ012-015-019>023-130900-
MARYLAND EASTERN SHORE

CITY           SKY/WX    TMP DP  RH WIND       PRES   REMARKS
OCEAN CITY     CLEAR     21  17  84 W3        29.99S
SALISBURY      CLEAR     20  17  88 W3        29.99S
BAY BRIDGE AP*   N/A     27  16  63 W13       30.00R WCI  16
CAMBRIDGE*     CLEAR     28  14  54 NW8G16    29.99S WCI  20
EASTON*        CLEAR     27  16  62 NW10      30.03R WCI  17

$$

MDZ017>025-130900-
SOUTHERN MARYLAND

CITY           SKY/WX    TMP DP  RH WIND       PRES   REMARKS
PATUXENT RIVER PTCLDY    26  14  60 W12       30.00S WCI  16
ST INIGOES     PTCLDY    26  16  65 W6        30.01R
LEONARDTOWN*   PTCLDY    25  14  63 W3        30.02R

$$

MDZ003>005-130900-
NORTH CENTRAL MARYLAND

CITY           SKY/WX    TMP DP  RH WIND       PRES   REMARKS
FREDERICK*     NOT AVBL
HAGERSTOWN APT PTCLDY    20  10  65 NW17      29.99R WCI   5
WESTMINSTER*   MOCLDY    19  16  86 W10       29.93R WCI   8

$$

MDZ501>502-130900-
WESTERN MARYLAND

CITY           SKY/WX    TMP DP  RH WIND       PRES   REMARKS
OAKLAND*       CLOUDY     7   3  85 W10G26    29.89R FOG     WCI  -8
CUMBERLAND*    MOCLDY    21   7  53 W10G26    30.10R WCI  10

$$

VAZ025>031-130900-
SHENANDOAH VALLEY

CITY           SKY/WX    TMP DP  RH WIND       PRES   REMARKS
WINCHESTER*    CLOUDY    23   9  54 W20G33    30.02R WCI   8
FRONT ROYAL*   CLOUDY    21   9  58 NW13G18   30.03R WCI   9
LURAY*         PTSUNNY   21   5  49 W24G31    30.04R WCI   4
NEW MARKET*    PTSUNNY   21   1  42 W7G25     30.04R
STAUNTON*      FAIR      26   9  49 NW14G26   30.05R WCI  14
WAYNESBORO*    CLOUDY    22   3  43 NW17G29   30.00R WCI   7

$$

WVZ021-048>050-054>055-130900-
EASTERN WEST VIRGINIA PANHANDLE

CITY           SKY/WX    TMP DP  RH WIND       PRES   REMARKS
MARTINSBURG    CLOUDY    21   7  54 W15G28    30.02R WCI   8
PETERSBURG*    FAIR      19   2  49 NW9G25    30.10R WCI   7

$$

VAZ036>039-050-130900-
CENTRAL FOOTHILLS

CITY           SKY/WX    TMP DP  RH WIND       PRES   REMARKS
CHARLOTTESVILL CLOUDY    27  12  53 N17G26    30.03R WCI  14
CULPEPER*      MOCLDY    26  13  58 W14       30.05R WCI  14
ORANGE*        CLOUDY    30  12  47 W16G28    30.04R WCI  19
GORDONSVILLE*  CLOUDY    28   9  44 NW13G25   30.03R WCI  18
WARRENTON*     LGT SNOW  26  23  91 NW18G25   30.03R WCI  12

$$

VAZ055>057-130900-
NORTH AND CENTRAL PIEDMONT

CITY           SKY/WX    TMP DP  RH WIND       PRES   REMARKS
FREDERICKSBRG* CLOUDY    24  22  95 W6        30.03R
STAFFORD*      FAIR      22  17  84 W8        30.06R WCI  12

$$

NCZ024-NYZ072-PAZ021-071-VAZ022-071-130900-
OTHER REGIONAL OBSERVATIONS

CITY           SKY/WX    TMP DP  RH WIND       PRES   REMARKS
NEW YORK CITY  PTCLDY    21  11  65 VRB7      29.89F
PHILADELPHIA   PTCLDY    22  15  75 W12       29.95F WCI  10
PITTSBURGH     LGT SNOW  13   4  67 NW22G32   30.09R WCI  -6
ROANOKE        FLURRIES  25  12  58 NW21G32   30.05R WCI  11
RICHMOND       MOCLDY    26  18  71 N8        30.02R WCI  18
RALEIGH        PTCLDY    32  19  58 NW7       30.04S

$$

ANZ530>537-130900-
MARINE OBSERVATIONS

STATION/POSITION TIME  TEMP    WIND        PRES
                       AIR SEA DIR/SP/G
                 (UTC) (F)     (DEG/KT/KT) (MB)
THOMAS PT LIGHT  0800   26 36  300/ 11/ 12 1016.5R
BALT KEY BRIDGE  0700   25     250/ 11/ 15 1015.3F
COVE POINT       0700   26     320/  7/ 11 1016.5F
LEWISETTA        0700   28 38  290/  6/  7 1015.9F
SOLOMONS ISLAND  0700   28 39  290/  5/  6   N/A
PINEY POINT      0700          350/ 11/ 13   N/A

$$





USA.gov is the U.S. government's official web portal to all federal, state and local government web resources and services.